Regional Weather Roundup
Issued by NWS Goodland, KS

Home | Current Version | Previous Version | Graphics & Text | Print | Product List | Glossary On
Versions: 1 2 3 4 5 6 7 8 9 10 11 12 13 14 15 16 17 18 19 20 21 22 23 24 25 26 27 28 29 30 31 32 33 34 35 36 37 38 39 40 41 42 43 44 45 46 47 48 49 50
000
ASUS43 KGLD 050259
RWRGLD

GOODLAND FORECAST AREA HOURLY WEATHER ROUNDUP
NATIONAL WEATHER SERVICE GOODLAND KS
900 PM MDT FRI SEP 04 2015

...OFFICIAL OBSERVATIONS...

CITY           SKY/WX    TMP DP  RH WIND       PRES   REMARKS
GOODLAND KS    MOCLDY    79  52  38 S10       29.89R
HILL CITY KS   PTCLDY    86  59  39 S12       29.86R
IMPERIAL NEB   MOCLDY    75  55  49 SE5       29.86R
MCCOOK NEB     PTCLDY    85  56  37 S13       29.83R
AKRON CO       MOCLDY    80  45  28 S8        29.92R
BURLINGTON CO  MOCLDY    79  51  37 SE13      29.92R
LIMON CO       CLOUDY    74  49  41 SE9       29.98R
$$

...UNOFFICIAL OBSERVATIONS...

CITY           SKY/WX    TMP DP  RH WIND       PRES   REMARKS
COLBY KS       CLEAR     81  59  47 SE12      29.90R
GOVE KS          N/A     86  32  14 MISG        N/A
LENORA KS        N/A     82  32  16 MISG        N/A
NORTON KS      CLEAR     81  48  32 SE7       29.85R
SHARON SPRINGS   N/A     79  55  43 SE12        N/A
TRENTON NEB      N/A     82  32  16 S9          N/A
KIT CARSON CO    N/A     81  52  36 MISG        N/A
YUMA CO          N/A     75  53  46 SE6         N/A
$$



USA.gov is the U.S. government's official web portal to all federal, state and local government web resources and services.